Time,TemperatureF,DewpointF,PressureIn,WindDirection,WindDirectionDegrees,WindSpeedMPH,WindSpeedGustMPH,Humidity,HourlyPrecipIn,Conditions,Clouds,dailyrainin,SoftwareType,DateUTC
2013-02-07 00:15:00,28.4,27.9,30.12,ESE,112,0.0,-999.0,98,-99.99,,,0.00,Acu-Link.com,2013-02-07 05:15:00,
2013-02-07 00:30:00,29.7,29.2,30.12,NW,315,0.0,-999.0,98,-99.99,,,0.00,Acu-Link.com,2013-02-07 05:30:00,
2013-02-07 00:45:00,30.4,27.0,30.13,West,270,0.0,-999.0,87,-99.99,,,0.00,Acu-Link.com,2013-02-07 05:45:00,
2013-02-07 01:00:00,29.8,29.1,30.12,NW,315,0.0,-999.0,97,-99.99,,,0.00,Acu-Link.com,2013-02-07 06:00:00,
2013-02-07 01:15:00,29.5,28.0,30.12,NW,315,0.0,-999.0,94,-99.99,,,0.00,Acu-Link.com,2013-02-07 06:15:00,
2013-02-07 01:30:00,29.5,29.0,30.12,NW,315,0.0,-999.0,98,-99.99,,,0.00,Acu-Link.com,2013-02-07 06:30:00,
2013-02-07 01:45:00,31.3,27.6,30.11,NNE,22,0.0,-999.0,86,-99.99,,,0.00,Acu-Link.com,2013-02-07 06:45:00,
2013-02-07 02:00:00,30.4,29.7,30.12,NE,45,0.0,-999.0,97,-99.99,,,0.00,Acu-Link.com,2013-02-07 07:00:00,
2013-02-07 02:15:00,31.6,31.1,30.12,NE,45,0.0,-999.0,98,-99.99,,,0.00,Acu-Link.com,2013-02-07 07:15:00,
2013-02-07 02:31:00,33.8,33.3,30.13,ENE,67,4.7,-999.0,98,-99.99,,,0.00,Acu-Link.com,2013-02-07 07:31:00,
2013-02-07 02:46:00,34.2,33.7,30.13,West,270,1.1,-999.0,98,-99.99,,,0.00,Acu-Link.com,2013-02-07 07:46:00,
2013-02-07 03:01:00,35.2,34.7,30.14,WSW,247,1.1,-999.0,98,-99.99,,,0.00,Acu-Link.com,2013-02-07 08:01:00,
2013-02-07 03:16:00,36.1,32.3,30.14,West,270,0.0,-999.0,86,-99.99,,,0.00,Acu-Link.com,2013-02-07 08:16:00,
2013-02-07 03:31:00,36.9,32.2,30.14,ENE,67,1.7,-999.0,83,-99.99,,,0.00,Acu-Link.com,2013-02-07 08:31:00,
2013-02-07 03:46:00,36.9,32.2,30.12,East,90,0.0,-999.0,83,-99.99,,,0.00,Acu-Link.com,2013-02-07 08:46:00,
2013-02-07 04:02:00,36.7,31.7,30.12,ESE,112,0.0,-999.0,82,-99.99,,,0.00,Acu-Link.com,2013-02-07 09:02:00,
2013-02-07 04:17:00,36.5,31.2,30.13,ESE,112,0.0,-999.0,81,-99.99,,,0.00,Acu-Link.com,2013-02-07 09:17:00,
2013-02-07 04:32:00,36.3,30.1,30.14,WSW,247,2.2,-999.0,78,-99.99,,,0.00,Acu-Link.com,2013-02-07 09:32:00,
2013-02-07 04:47:00,36.1,29.9,30.15,NNE,22,0.0,-999.0,78,-99.99,,,0.00,Acu-Link.com,2013-02-07 09:47:00,
2013-02-07 05:02:00,36.1,28.6,30.16,SW,225,0.0,-999.0,74,-99.99,,,0.00,Acu-Link.com,2013-02-07 10:02:00,
2013-02-07 05:17:00,36.1,29.0,30.17,NE,45,0.0,-999.0,75,-99.99,,,0.00,Acu-Link.com,2013-02-07 10:17:00,
2013-02-07 05:32:00,36.1,28.0,30.18,SSW,202,4.7,-999.0,72,-99.99,,,0.00,Acu-Link.com,2013-02-07 10:32:00,
2013-02-07 05:47:00,35.8,28.3,30.16,East,90,0.0,-999.0,74,-99.99,,,0.00,Acu-Link.com,2013-02-07 10:47:00,
2013-02-07 06:02:00,35.6,28.1,30.14,East,90,0.0,-999.0,74,-99.99,,,0.00,Acu-Link.com,2013-02-07 11:02:00,
2013-02-07 06:18:00,35.4,27.6,30.15,SSW,202,0.0,-999.0,73,-99.99,,,0.00,Acu-Link.com,2013-02-07 11:18:00,
2013-02-07 06:33:00,34.9,27.5,30.16,NE,45,2.7,-999.0,74,-99.99,,,0.00,Acu-Link.com,2013-02-07 11:33:00,
2013-02-07 06:48:00,34.7,27.6,30.17,SE,135,0.0,-999.0,75,-99.99,,,0.00,Acu-Link.com,2013-02-07 11:48:00,
2013-02-07 07:03:00,34.3,27.2,30.17,ESE,112,0.0,-999.0,75,-99.99,,,0.00,Acu-Link.com,2013-02-07 12:03:00,
2013-02-07 07:18:00,33.8,27.7,30.17,ESE,112,0.0,-999.0,78,-99.99,,,0.00,Acu-Link.com,2013-02-07 12:18:00,
2013-02-07 07:33:00,33.4,27.3,30.17,SSE,157,0.0,-999.0,78,-99.99,,,0.00,Acu-Link.com,2013-02-07 12:33:00,
2013-02-07 07:48:00,33.6,27.8,30.18,East,90,0.0,-999.0,79,-99.99,,,0.00,Acu-Link.com,2013-02-07 12:48:00,
2013-02-07 08:03:00,34.0,28.5,30.18,SE,135,0.0,-999.0,80,-99.99,,,0.00,Acu-Link.com,2013-02-07 13:03:00,
2013-02-07 08:18:00,34.9,28.8,30.16,SSE,157,1.1,-999.0,78,-99.99,,,0.00,Acu-Link.com,2013-02-07 13:18:00,
2013-02-07 08:33:00,35.4,29.2,30.16,SSW,202,2.2,-999.0,78,-99.99,,,0.00,Acu-Link.com,2013-02-07 13:33:00,
2013-02-07 08:49:00,36.0,30.4,30.17,East,90,3.2,-999.0,80,-99.99,,,0.00,Acu-Link.com,2013-02-07 13:49:00,
2013-02-07 09:04:00,36.3,30.4,30.17,West,270,2.7,-999.0,79,-99.99,,,0.00,Acu-Link.com,2013-02-07 14:04:00,
2013-02-07 09:19:00,36.7,31.1,30.19,SE,135,1.1,-999.0,80,-99.99,,,0.00,Acu-Link.com,2013-02-07 14:19:00,
2013-02-07 09:34:00,37.0,31.1,30.18,East,90,0.0,-999.0,79,-99.99,,,0.00,Acu-Link.com,2013-02-07 14:34:00,
2013-02-07 09:49:00,37.6,32.0,30.18,SE,135,3.2,-999.0,80,-99.99,,,0.00,Acu-Link.com,2013-02-07 14:49:00,
2013-02-07 10:04:00,37.9,31.7,30.17,WSW,247,2.2,-999.0,78,-99.99,,,0.00,Acu-Link.com,2013-02-07 15:04:00,
2013-02-07 10:19:00,38.5,32.6,30.16,NW,315,0.0,-999.0,79,-99.99,,,0.00,Acu-Link.com,2013-02-07 15:19:00,
2013-02-07 10:34:00,38.3,31.7,30.17,West,270,0.0,-999.0,77,-99.99,,,0.00,Acu-Link.com,2013-02-07 15:34:00,
2013-02-07 10:50:00,39.0,32.7,30.17,ENE,67,2.2,-999.0,78,-99.99,,,0.00,Acu-Link.com,2013-02-07 15:50:00,
2013-02-07 11:05:00,39.2,32.0,30.16,SSW,202,4.7,-999.0,75,-99.99,,,0.00,Acu-Link.com,2013-02-07 16:05:00,
2013-02-07 11:20:00,39.6,32.0,30.14,SSW,202,1.7,-999.0,74,-99.99,,,0.00,Acu-Link.com,2013-02-07 16:20:00,
2013-02-07 11:35:00,39.6,32.3,30.14,West,270,0.0,-999.0,75,-99.99,,,0.00,Acu-Link.com,2013-02-07 16:35:00,
2013-02-07 11:50:00,39.9,32.6,30.14,SSW,202,0.0,-999.0,75,-99.99,,,0.00,Acu-Link.com,2013-02-07 16:50:00,
2013-02-07 12:05:00,39.7,32.4,30.13,WSW,247,0.0,-999.0,75,-99.99,,,0.00,Acu-Link.com,2013-02-07 17:05:00,
2013-02-07 12:20:00,40.1,33.2,30.12,West,270,0.0,-999.0,76,-99.99,,,0.00,Acu-Link.com,2013-02-07 17:20:00,
2013-02-07 12:35:00,40.8,33.8,30.11,ESE,112,0.0,-999.0,76,-99.99,,,0.00,Acu-Link.com,2013-02-07 17:35:00,
2013-02-07 12:50:00,40.3,33.7,30.10,SSE,157,2.2,-999.0,77,-99.99,,,0.00,Acu-Link.com,2013-02-07 17:50:00,
2013-02-07 13:05:00,40.3,33.0,30.09,NW,315,0.0,-999.0,75,-99.99,,,0.00,Acu-Link.com,2013-02-07 18:05:00,
2013-02-07 13:21:00,39.4,33.1,30.08,NNW,337,1.7,-999.0,78,-99.99,,,0.00,Acu-Link.com,2013-02-07 18:21:00,
2013-02-07 13:36:00,40.5,34.5,30.07,SW,225,0.0,-999.0,79,-99.99,,,0.00,Acu-Link.com,2013-02-07 18:36:00,
2013-02-07 13:51:00,41.0,34.7,30.07,SSW,202,1.7,-999.0,78,-99.99,,,0.00,Acu-Link.com,2013-02-07 18:51:00,
2013-02-07 14:06:00,40.6,34.3,30.04,East,90,2.2,-999.0,78,-99.99,,,0.00,Acu-Link.com,2013-02-07 19:06:00,
2013-02-07 14:21:00,40.8,33.5,30.04,East,90,0.0,-999.0,75,-99.99,,,0.00,Acu-Link.com,2013-02-07 19:21:00,
2013-02-07 14:36:00,41.5,33.8,30.04,ESE,112,0.0,-999.0,74,-99.99,,,0.00,Acu-Link.com,2013-02-07 19:36:00,
2013-02-07 14:51:00,41.0,33.7,30.04,ESE,112,1.7,-999.0,75,-99.99,,,0.00,Acu-Link.com,2013-02-07 19:51:00,
2013-02-07 15:06:00,40.6,33.3,30.05,NE,45,3.2,-999.0,75,-99.99,,,0.00,Acu-Link.com,2013-02-07 20:06:00,
2013-02-07 15:21:00,40.3,33.3,30.05,ESE,112,3.7,-999.0,76,-99.99,,,0.00,Acu-Link.com,2013-02-07 20:21:00,
2013-02-07 15:37:00,41.0,33.4,30.04,SE,135,1.1,-999.0,74,-99.99,,,0.00,Acu-Link.com,2013-02-07 20:37:00,
2013-02-07 15:52:00,40.3,33.0,30.05,SSE,157,2.2,-999.0,75,-99.99,,,0.00,Acu-Link.com,2013-02-07 20:52:00,
2013-02-07 16:07:00,40.6,33.3,30.05,SE,135,2.7,-999.0,75,-99.99,,,0.00,Acu-Link.com,2013-02-07 21:07:00,
2013-02-07 16:22:00,40.3,32.7,30.04,East,90,2.2,-999.0,74,-99.99,,,0.00,Acu-Link.com,2013-02-07 21:22:00,
2013-02-07 16:37:00,39.9,32.3,30.03,SE,135,2.2,-999.0,74,-99.99,,,0.00,Acu-Link.com,2013-02-07 21:37:00,
2013-02-07 16:52:00,39.7,32.1,30.02,East,90,1.1,-999.0,74,-99.99,,,0.00,Acu-Link.com,2013-02-07 21:52:00,
2013-02-07 17:07:00,39.6,31.7,30.02,SW,225,0.0,-999.0,73,-99.99,,,0.00,Acu-Link.com,2013-02-07 22:07:00,
2013-02-07 17:22:00,39.2,31.3,30.00,South,180,0.0,-999.0,73,-99.99,,,0.00,Acu-Link.com,2013-02-07 22:22:00,
2013-02-07 17:37:00,38.8,31.2,30.00,NE,45,1.1,-999.0,74,-99.99,,,0.00,Acu-Link.com,2013-02-07 22:37:00,
2013-02-07 17:53:00,38.3,30.4,30.01,East,90,1.7,-999.0,73,-99.99,,,0.00,Acu-Link.com,2013-02-07 22:53:00,
2013-02-07 18:08:00,38.1,30.6,30.01,NE,45,0.0,-999.0,74,-99.99,,,0.00,Acu-Link.com,2013-02-07 23:08:00,
2013-02-07 18:23:00,37.8,30.6,30.01,ESE,112,0.0,-999.0,75,-99.99,,,0.00,Acu-Link.com,2013-02-07 23:23:00,
2013-02-07 18:38:00,37.4,30.2,30.01,East,90,1.7,-999.0,75,-99.99,,,0.00,Acu-Link.com,2013-02-07 23:38:00,
2013-02-07 18:53:00,37.4,30.2,30.01,SSW,202,0.0,-999.0,75,-99.99,,,0.00,Acu-Link.com,2013-02-07 23:53:00,
2013-02-07 19:08:00,37.2,31.0,29.99,SSW,202,0.0,-999.0,78,-99.99,,,0.00,Acu-Link.com,2013-02-08 00:08:00,
2013-02-07 19:23:00,36.7,30.8,29.99,NNE,22,0.0,-999.0,79,-99.99,,,0.00,Acu-Link.com,2013-02-08 00:23:00,
2013-02-07 19:38:00,36.1,31.1,29.99,West,270,0.0,-999.0,82,-99.99,,,0.00,Acu-Link.com,2013-02-08 00:38:00,
2013-02-07 19:53:00,35.8,32.0,29.99,NE,45,0.0,-999.0,86,-99.99,,,0.00,Acu-Link.com,2013-02-08 00:53:00,
2013-02-07 20:09:00,35.2,34.7,29.99,WSW,247,0.0,-999.0,98,-99.99,,,0.00,Acu-Link.com,2013-02-08 01:09:00,
2013-02-07 20:24:00,34.9,34.4,29.99,ENE,67,0.0,-999.0,98,-99.99,,,0.00,Acu-Link.com,2013-02-08 01:24:00,
2013-02-07 20:39:00,34.3,33.8,29.98,WSW,247,0.0,-999.0,98,-99.99,,,0.00,Acu-Link.com,2013-02-08 01:39:00,
2013-02-07 20:54:00,34.0,33.5,29.99,WNW,292,0.0,-999.0,98,-99.99,,,0.00,Acu-Link.com,2013-02-08 01:54:00,
2013-02-07 21:09:00,33.8,33.3,29.99,SE,135,0.0,-999.0,98,-99.99,,,0.00,Acu-Link.com,2013-02-08 02:09:00,
2013-02-07 21:24:00,33.4,32.9,29.98,ENE,67,0.0,-999.0,98,-99.99,,,0.00,Acu-Link.com,2013-02-08 02:24:00,
2013-02-07 21:39:00,33.3,32.8,29.98,WNW,292,0.0,-999.0,98,-99.99,,,0.00,Acu-Link.com,2013-02-08 02:39:00,
2013-02-07 21:54:00,32.9,32.4,29.97,NNW,337,0.0,-999.0,98,-99.99,,,0.00,Acu-Link.com,2013-02-08 02:54:00,
2013-02-07 22:09:00,32.7,32.2,29.97,NW,315,0.0,-999.0,98,-99.99,,,0.00,Acu-Link.com,2013-02-08 03:09:00,
2013-02-07 22:24:00,32.5,32.0,29.94,ESE,112,0.0,-999.0,98,-99.99,,,0.00,Acu-Link.com,2013-02-08 03:24:00,
2013-02-07 22:40:00,32.5,32.0,29.93,West,270,0.0,-999.0,98,-99.99,,,0.00,Acu-Link.com,2013-02-08 03:40:00,
2013-02-07 22:55:00,32.4,31.9,29.93,North,0,0.0,-999.0,98,-99.99,,,0.00,Acu-Link.com,2013-02-08 03:55:00,
2013-02-07 23:10:00,32.2,31.7,29.93,SE,135,0.0,-999.0,98,-99.99,,,0.00,Acu-Link.com,2013-02-08 04:10:00,
2013-02-07 23:25:00,32.2,31.7,29.92,ESE,112,0.0,-999.0,98,-99.99,,,0.00,Acu-Link.com,2013-02-08 04:25:00,
2013-02-07 23:40:00,32.2,31.7,29.92,East,90,0.0,-999.0,98,-99.99,,,0.00,Acu-Link.com,2013-02-08 04:40:00,